Location: Unspecified
(0.0000°N, 0.0000°E)
Time: 07:12:06

XW-2D - Pass Details

Date: 12 December 2017
Orbit: 511 x 530 km, 97.5° (Epoch: 18 March)

Event Time Altitude Azimuth Distance (km) Brightness Sun altitude
Rises 18:26:47 0° 197° (SSW) 2,618 ? -7.5°
Reaches altitude 10° 18:29:29 10° 219° (SW) 1,731 ? -8.2°
Maximum altitude 18:31:51 16° 259° (WSW) 1,381 ? -8.7°
Drops below altitude 10° 18:34:14 10° 298° (WNW) 1,731 ? -9.3°
Sets 18:36:57 0° 320° (NW) 2,617 ? -9.9°
